Regional Weather Roundup
Issued by NWS

Home | Current Version | Previous Version | Graphics & Text | Print | Product List | Glossary On
Versions: 1 2 3 4 5 6 7 8 9 10 11 12 13 14 15 16 17 18 19 20 21 22 23 24 25 26 27
000
ASUS45 KPSR 171110
RWRAZ

ARIZONA HOURLY REGIONAL WEATHER ROUNDUP
NATIONAL WEATHER SERVICE PHOENIX AZ
400 AM MST SUN DEC 17 2017

NOTE: FAIR INDICATES FEW OR NO CLOUDS BELOW 12,000 FEET WITH NO
SIGNIFICANT WEATHER AND/OR OBSTRUCTIONS TO VISIBILITY.

AZZ001>003-036-171200-
NORTHWEST ARIZONA

CITY           SKY/WX    TMP DP  RH WIND       PRES   REMARKS
BULLHEAD CITY  MOCLDY    57  25  28 N18G30    29.89R
KINGMAN        PTCLDY    36  21  54 E10       29.92S WCI  28
$$

AZZ004>008-015-016-018-171200-
NORTH CENTRAL ARIZONA

CITY           SKY/WX    TMP DP  RH WIND       PRES   REMARKS
GRAND CANYON   MOCLDY    16   0  49 CALM      29.96R
WILLIAMS       CLOUDY    27   9  46 S5        29.92S WCI  21
PRESCOTT       MOCLDY    26  13  57 S6        29.91S WCI  19
FLAGSTAFF      MOCLDY    26   9  48 CALM      29.94S
PAYSON         MOCLDY    37  14  38 CALM      29.90S
PAGE           PTCLDY    30  10  43 SW3       29.97R
$$

AZZ009>014-017-171200-
NORTHEAST ARIZONA

CITY           SKY/WX    TMP DP  RH WIND       PRES   REMARKS
WINSLOW        CLOUDY    33   8  35 SE5       29.94S WCI  29
SAINT JOHNS    CLOUDY    31   3  30 E3        29.94S
WINDOW ROCK    CLOUDY    32  10  40 CALM      29.97R
SHOW LOW       CLOUDY    34  10  37 CALM      29.94F
$$

AZZ540-542>544-546-548-171200-
GREATER PHOENIX AREA

CITY           SKY/WX    TMP DP  RH WIND       PRES   REMARKS
PHOENIX        CLOUDY    56  27  32 S20G29    29.82R
BUCKEYE        CLOUDY    45  12  26 N5        29.80S
LUKE AFB       PTCLDY    47  22  37 NE7       29.78S
DEER VALLEY    MOCLDY    54  23  30 NE6       29.79S
SCOTTSDALE     LGT RAIN  55  34  45 VRB5G23   29.82R
MESA-GATEWAY   TSTM      48  45  87 SE20G30   29.87R
$$

AZZ539-553-171200-
SOUTHWEST MARICOPA COUNTY AND PINAL COUNTY

CITY           SKY/WX    TMP DP  RH WIND       PRES   REMARKS
CASA GRANDE    NOT AVBL
$$

AZZ503-504-507>509-171200-
SOUTHEAST ARIZONA

CITY           SKY/WX    TMP DP  RH WIND       PRES   REMARKS
TUCSON         LGT RAIN  50  42  74 SE15G26   29.84S
DAVIS-MONTHAN  CLOUDY    48  41  76 SE15      29.83F
NOGALES        MOCLDY    46  41  82 E7        29.84F
SIERRA VISTA   CLOUDY    44  40  85 W9        29.88R
DOUGLAS        LGT RAIN  45  41  86 SW16G24   29.89R
SAFFORD        MOCLDY    42  16  34 NW8       29.87R
$$

AZZ532-171200-
SOUTHWEST ARIZONA

CITY           SKY/WX    TMP DP  RH WIND       PRES   REMARKS
YUMA           PTCLDY    53  22  29 N9        29.74S
$$

CAZ041-043-047-048-061-525>527-560>570-171200-
SOUTHERN CALIFORNIA

CITY           SKY/WX    TMP DP  RH WIND       PRES   REMARKS
DOWNTOWN L.A.  CLEAR     50  40  68 CALM      29.80S
L.A. AIRPORT   CLEAR     59  24  26 N8        29.81R
SAN DIEGO      PTCLDY    52  48  86 CALM      29.80S
BURBANK        CLEAR     60  22  23 CALM      29.81R
ONTARIO        PTCLDY    60  19  20 NE16G24   29.81R
RIVERSIDE      CLEAR     58  20  22 NE18G35   29.84R
PALM SPRINGS   PTCLDY    63  23  21 N10G22    29.89R
EL CENTRO NAS  MOCLDY    58  30  34 N18       29.79F
IMPERIAL       MOCLDY    57  33  40 N13       29.77S
BLYTHE         MOCLDY    58  21  24 N20       29.80S
NEEDLES        MOCLDY    57  29  34 N20       29.88S
$$

NVZ020-UTZ003-171200-
SOUTHERN NEVADA-UTAH

CITY           SKY/WX    TMP DP  RH WIND       PRES   REMARKS
LAS VEGAS      MOCLDY    51  22  31 N17G30    29.97R
SALT LAKE CITY MOCLDY    31  26  82 NW5       30.15R WCI  26
$$

NMZ009-TXZ055-171200-
NEW MEXICO-WEST TEXAS

CITY           SKY/WX    TMP DP  RH WIND       PRES   REMARKS
ALBUQUERQUE    CLOUDY    33  14  45 S3        29.98R
EL PASO        MOCLDY    40  31  70 CALM      29.94R
$$


........................KEY........................
SKY/WX - SKY CONDITION/WEATHER
TMP    - TEMPERATURE IN FAHRENHEIT
DP     - DEW POINT IN FAHRENHEIT
RH     - RELATIVE HUMIDITY IN PERCENT
WIND   - DIRECTION AND SPEED IN MILES PER HOUR (MPH)
VRB    - VARIABLE WIND DIRECTION
PRES   - MEAN SEA LEVEL PRESSURE IN INCHES OF MERCURY
         F - FALLING PRESSURE   R - RISING PRESSURE
         S - STEADY PRESSURE
VSB    - VISIBILITY IN MILES
HX     - HEAT INDEX IN FAHRENHEIT
WCI    - WIND CHILL INDEX IN FAHRENHEIT
TC     - TEMPERATURE IN CELSIUS WHICH IS ALSO KNOWN AS
         TEMPERATURE IN CENTIGRADE
AFB    - AIR FORCE BASE
         LUKE AFB IS LUKE AIR FORCE BASE
         DAVIS-MONTHAN IS DAVIS-MONTHAN AIR FORCE BASE
NAS    - NAVAL AIR STATION
         EL CENTRO NAS IS EL CENTRO NAVAL AIR STATION
N/A    - NOT AVAILABLE





USA.gov is the U.S. government's official web portal to all federal, state and local government web resources and services.